Find Local Weather

World > North America > United States > New York

Newfane, New York Regional Weather

Lat: 43.29N, Lon: 78.7W
Wx Zone: NYZ001
Warning FLW WEATHER ALERT - (More Info. Click Here) Warning
Feedback

Newfane, NY Regional Weather

Expires:201905260100;;460967
ASUS41 KALY 260010
RWRALY

NEW YORK STATE HOURLY WEATHER ROUNDUP
NATIONAL WEATHER SERVICE ALBANY NY
800 PM EDT SAT MAY 25 2019

NOTE: "FAIR" INDICATES FEW OR NO CLOUDS BELOW 12,000 FEET WITH NO
SIGNIFICANT WEATHER AND/OR NO OBSTRUCTIONS TO VISIBILITY.


NYZ001>004-010>016-019>021-085-260100-
WEST

  
CITY           SKY/WX    TMP DP  RH WIND       PRES   REMARKS
NIAGARA FALLS  LGT RAIN  64  62  93 SW12      29.88F                  
BUFFALO        RAIN      65  63  93 SW8       29.90F FOG              
DUNKIRK        LGT RAIN  64  59  83 S9        29.93R                  
JAMESTOWN      CLOUDY    66  62  87 W16G24    29.99R                  
WELLSVILLE     TSTM      63  63 100 N10G30    29.97R FOG              
ROCHESTER      TSTM      67  64  90 NW20G32   29.89R FOG              
PENN YAN       MOCLDY    70  64  81 SW9       29.87F                  
$$

             KEY
       WCI = WIND CHILL INDEX
       VSB = VISIBILITY
       HX  = HEAT INDEX
$$
  

SKY/WX - Weather  TMP - Temperature  DP - Dew Point  RH - Relative Humidity
WIND - Wind Direction/Speed PRES - Barometric Pressure VSB - Visibility
WCI - Wind Chill Index E13G22 Wind - East Wind 13 mph/Gusts of 22 mph